Location: Powder Track
(41.8531°N, 72.3584°W)
Time: 11:42:53
(UTC+00:00)

Explorer 7 - All Passes

Search period start: 04 August 2021 00:00
Search period end: 14 August 2021 00:00
Orbit: 484 x 676 km, 50.3° (Epoch: 04 August)

Date Brightness Start Highest point End Pass type
(mag) Time Alt. Az. Time Alt. Az. Time Alt. Az.
04 Aug - 06:58:22 10° SSE 06:59:58 12° SE 07:01:37 10° ESE visible
04 Aug - 08:36:06 10° SW 08:39:51 85° SE 08:43:43 10° ENE visible
04 Aug - 10:17:16 10° WNW 10:20:39 29° NNW 10:24:09 10° NE daylight
04 Aug - 11:58:39 10° NW 12:01:58 25° N 12:05:26 10° ENE daylight
04 Aug - 13:39:00 10° NW 13:43:01 57° NNE 13:47:17 10° ESE daylight
04 Aug - 15:19:40 10° WNW 15:23:22 30° SW 15:27:16 10° SSE daylight
05 Aug - 07:01:12 10° S 07:04:04 21° SE 07:06:57 10° E visible
05 Aug - 08:40:28 10° WSW 08:44:10 63° NNW 08:48:01 10° NE visible
05 Aug - 10:21:57 10° WNW 10:25:10 25° N 10:28:31 10° NE daylight
05 Aug - 12:03:02 10° NW 12:06:29 28° NNE 12:10:06 10° ENE daylight
05 Aug - 13:43:17 10° WNW 13:47:22 82° NNE 13:51:43 10° ESE daylight
05 Aug - 15:24:30 10° W 15:27:31 19° SW 15:30:39 10° S daylight
06 Aug - 07:04:47 10° SSW 07:08:12 34° SE 07:11:40 10° ENE visible
06 Aug - 08:44:58 10° W 08:48:34 43° NNW 08:52:17 10° NE visible
06 Aug - 10:26:34 10° WNW 10:29:43 23° N 10:32:58 10° NE daylight
06 Aug - 12:07:21 10° NW 12:10:59 34° NNE 12:14:47 10° E daylight
06 Aug - 13:47:37 10° WNW 13:51:40 66° SW 13:55:58 10° SE daylight
06 Aug - 15:30:12 10° WSW 15:31:37 11° SW 15:33:01 10° SSW daylight
07 Aug - 07:08:45 10° SW 07:12:25 58° SE 07:16:09 10° ENE visible
07 Aug - 08:49:35 10° W 08:53:02 33° NNW 08:56:34 10° NE visible
07 Aug - 10:31:08 10° NW 10:34:17 23° N 10:37:32 10° ENE daylight
07 Aug - 12:11:38 10° NW 12:15:25 43° NNE 12:19:26 10° E daylight
07 Aug - 13:52:03 10° WNW 13:55:54 41° SW 13:59:59 10° SSE daylight
08 Aug - 05:34:42 10° SSE 05:36:45 14° SE 05:38:47 10° E visible
08 Aug - 07:12:57 10° WSW 07:16:42 87° NNW 07:20:30 10° ENE visible
08 Aug - 08:54:16 10° WNW 08:57:32 27° NNW 09:00:52 10° NE visible
08 Aug - 10:35:36 10° NW 10:38:49 25° N 10:42:10 10° ENE daylight
08 Aug - 12:15:54 10° NW 12:19:49 61° NNE 12:23:58 10° ESE daylight
08 Aug - 13:56:40 10° W 14:00:06 26° SW 14:03:41 10° SSE daylight
09 Aug - 05:37:48 10° S 05:40:51 24° SE 05:43:54 10° E visible
09 Aug - 07:17:22 10° WSW 07:21:02 57° NNW 07:24:47 10° NE visible
09 Aug - 08:58:56 10° WNW 09:02:03 24° N 09:05:15 10° NE visible
09 Aug - 10:39:58 10° NW 10:43:21 28° NNE 10:46:51 10° ENE daylight
09 Aug - 12:20:11 10° WNW 12:24:09 89° NNE 12:28:21 10° ESE daylight
09 Aug - 14:01:39 10° W 14:04:14 16° SW 14:06:53 10° S daylight
10 Aug - 05:41:29 10° SSW 05:45:01 39° SE 05:48:32 10° ENE visible
10 Aug - 07:21:54 10° W 07:25:27 40° NNW 07:29:03 10° NE visible
10 Aug - 09:03:33 10° NW 09:06:36 23° N 09:09:43 10° NE visible
10 Aug - 10:44:15 10° NW 10:47:49 34° NNE 10:51:32 10° E daylight
10 Aug - 12:24:33 10° WNW 12:28:26 58° SW 12:32:33 10° SE daylight
11 Aug - 05:45:31 10° SW 05:49:15 66° SE 05:52:58 10° ENE visible
11 Aug - 07:26:32 10° W 07:29:54 31° NNW 07:33:19 10° NE visible
11 Aug - 09:08:05 10° NW 09:11:09 23° N 09:14:18 10° ENE visible
11 Aug - 10:48:31 10° NW 10:52:15 45° NNE 10:56:09 10° E daylight
11 Aug - 12:29:00 10° WNW 12:32:39 36° SW 12:36:30 10° SSE daylight
12 Aug - 04:11:06 10° S 04:13:31 16° SE 04:15:55 10° E night (unlit)
12 Aug - 05:49:46 10° WSW 05:53:32 78° NNW 05:57:19 10° NE visible
12 Aug - 07:31:13 10° WNW 07:34:24 26° NNW 07:37:38 10° NE visible
12 Aug - 09:12:30 10° NW 09:15:41 25° N 09:18:57 10° ENE visible
12 Aug - 10:52:47 10° NW 10:56:37 66° NNE 11:00:39 10° ESE daylight
12 Aug - 12:33:41 10° W 12:36:50 22° SW 12:40:06 10° S daylight
13 Aug - 04:14:23 10° SSW 04:17:39 27° SE 04:20:51 10° ENE night (unlit)
13 Aug - 05:54:13 10° WSW 05:57:54 52° NNW 06:01:35 10° NE visible
13 Aug - 07:35:52 10° WNW 07:38:55 23° N 07:42:01 10° NE visible
13 Aug - 09:16:50 10° NW 09:20:12 29° NNE 09:23:38 10° ENE visible
13 Aug - 10:57:05 10° WNW 11:00:56 82° SSW 11:05:00 10° SE daylight
13 Aug - 12:38:54 10° W 12:40:56 14° SW 12:43:01 10° SSW daylight
